TimeAKDT,TemperatureF,Dew PointF,Humidity,Sea Level PressureIn,VisibilityMPH,Wind Direction,Wind SpeedMPH,Gust SpeedMPH,PrecipitationIn,Events,Conditions,WindDirDegrees,DateUTC
12:53 AM,-11.0,-16.1,78,30.61,10.0,West,9.2,-,N/A,,Clear,260,2013-04-19 08:53:00
1:53 AM,-11.9,-17.0,78,30.60,10.0,West,9.2,-,N/A,,Clear,260,2013-04-19 09:53:00
2:53 AM,-14.1,-20.0,75,30.60,10.0,West,9.2,-,N/A,,Clear,270,2013-04-19 10:53:00
3:53 AM,-16.1,-20.9,79,30.60,10.0,WSW,8.1,-,N/A,,Clear,240,2013-04-19 11:53:00
4:53 AM,-16.1,-20.9,79,30.59,10.0,WSW,6.9,-,N/A,,Clear,240,2013-04-19 12:53:00
5:53 AM,-15.0,-20.0,78,30.58,10.0,SW,9.2,-,N/A,,Scattered Clouds,230,2013-04-19 13:53:00
6:53 AM,-11.0,-17.0,75,30.57,10.0,SW,10.4,-,N/A,,Scattered Clouds,230,2013-04-19 14:53:00
7:53 AM,-9.0,-16.1,71,30.56,10.0,SW,9.2,-,N/A,,Partly Cloudy,230,2013-04-19 15:53:00
8:53 AM,-8.0,-14.1,75,30.55,10.0,WSW,8.1,-,N/A,,Clear,240,2013-04-19 16:53:00
9:53 AM,-4.0,-9.9,76,30.54,10.0,WSW,8.1,-,N/A,,Clear,250,2013-04-19 17:53:00
10:53 AM,-0.0,-7.1,72,30.53,10.0,SW,10.4,-,N/A,,Clear,230,2013-04-19 18:53:00
11:53 AM,1.9,-5.1,72,30.53,10.0,SW,11.5,-,N/A,,Clear,230,2013-04-19 19:53:00
12:53 PM,3.9,-2.9,73,30.52,10.0,WSW,11.5,-,N/A,,Clear,240,2013-04-19 20:53:00
1:53 PM,6.1,-0.0,76,30.51,10.0,WSW,10.4,-,N/A,,Partly Cloudy,250,2013-04-19 21:53:00
2:53 PM,8.1,1.9,76,30.50,10.0,WSW,9.2,-,N/A,,Clear,240,2013-04-19 22:53:00
3:53 PM,9.0,3.0,77,30.47,10.0,WSW,11.5,-,N/A,,Clear,240,2013-04-19 23:53:00
4:53 PM,10.0,3.9,76,30.46,10.0,WSW,8.1,-,N/A,,Clear,240,2013-04-20 00:53:00
5:53 PM,10.0,3.9,76,30.45,10.0,SW,6.9,-,N/A,,Clear,230,2013-04-20 01:53:00
6:53 PM,8.1,3.0,80,30.43,10.0,SW,8.1,-,N/A,,Clear,230,2013-04-20 02:53:00
7:53 PM,6.1,1.0,80,30.42,10.0,SW,10.4,-,N/A,,Clear,220,2013-04-20 03:53:00
8:53 PM,5.0,-0.0,80,30.40,10.0,SW,11.5,-,N/A,,Clear,220,2013-04-20 04:53:00
9:53 PM,5.0,-0.0,80,30.40,10.0,SW,11.5,-,N/A,,Clear,220,2013-04-20 05:53:00
10:53 PM,3.0,-2.9,76,30.38,10.0,SW,12.7,-,N/A,,Clear,220,2013-04-20 06:53:00
11:53 PM,1.9,-4.0,76,30.38,10.0,WSW,12.7,-,N/A,,Clear,240,2013-04-20 07:53:00